Home   Weather   Ann Arbor   Past weeks

Flag for USA Past Weather in Ann Arbor, Michigan, USA — Yesterday and Last 2 Weeks

Now
40 °F

Fog.


Feels Like: 40 °F
Forecast: 40 / 56 °F
Wind: No wind

Location: Ann Arbor Municipal Airport

Current Time: Jan 21, 2017 at 8:24:42 am

Latest Report: Jan 21, 2017 at 7:53 am


Visibility: 0 mi

Pressure: 29.70 "Hg

Humidity: 100%

Dew Point: 40 °F

Location of Ann ArborLocation

Past Weather in Ann Arbor — Graph

°F

Ann Arbor Temperature Yesterday

Maximum temperature yesterday: 41 °F (at 10:23 pm)
Minimum temperature yesterday: 32 °F (at 3:22 am)
Average temperature yesterday: 36 °F

High & Low Weather Summary for the Past Weeks

 TemperatureHumidityPressure
High56 °F (Jan 11, 11:53 pm)100% (Jan 10, 7:53 am)30.78 "Hg (Jan 10, 7:53 am)
Low0 °F (Jan 7, 5:53 am)53% (Jan 8, 11:53 am)29.42 "Hg (Jan 10, 8:36 pm)
Average28 °F86%30.14 "Hg
* Reported Jan 6 6:53 am — Jan 21 6:53 am, Ann Arbor, Weather by CustomWeather, © 2017

Note: Actual official high and low records may vary slightly from our data, if they occured in-between our weather recording intervals... More about our weather records

Advertising

Ann Arbor Weather History for the Previous 24 Hours

Scroll right to see more
 ConditionsComfort  
Time TempWeatherWind HumidityBarometerVisibility
6:53 am
Sat, Jan 21
41 °FFog.3 mph100%29.70 "Hg0 mi
5:53 am42 °FFog.3 mph100%29.70 "Hg1 mi
4:53 am41 °FFog.3 mph100%29.71 "Hg1 mi
3:53 am41 °FFog.3 mph100%29.73 "Hg1 mi
3:34 am40 °FFog.No wind100%29.72 "Hg1 mi
2:53 am39 °FFog.No wind100%29.74 "Hg0 mi
1:53 am39 °FFog.No wind100%29.74 "Hg0 mi
12:53 am40 °FFog.No wind100%29.75 "Hg0 mi
11:53 pm
Fri, Jan 20
39 °FFog.No wind100%29.76 "Hg0 mi
10:53 pm41 °FFog.5 mph100%29.75 "Hg1 mi
10:23 pm41 °FFog.5 mph100%29.74 "Hg1 mi
10:05 pm40 °FFog.No wind100%29.73 "Hg1 mi
9:29 pm40 °FFog.5 mph100%29.73 "Hg2 mi
8:53 pm40 °FFog.5 mph100%29.75 "Hg2 mi
8:38 pm40 °FFog.6 mph100%29.73 "Hg1 mi
7:53 pm39 °FFog.5 mph100%29.75 "Hg1 mi
6:53 pm39 °FFog.5 mph100%29.74 "Hg1 mi
6:28 pm39 °FFog.3 mph100%29.72 "Hg1 mi
5:53 pm39 °FFog.5 mph100%29.72 "Hg1 mi
5:11 pm39 °FFog.No wind100%29.67 "Hg1 mi
5:01 pm39 °FFog.3 mph100%29.68 "Hg1 mi
3:53 pm39 °FFog.5 mph100%29.70 "Hg0 mi
2:53 pm38 °FFog.No wind100%29.67 "Hg1 mi
2:13 pm38 °FFog.3 mph100%29.64 "Hg1 mi
1:30 pm38 °FFog.3 mph100%29.63 "Hg1 mi
12:53 pm37 °FFog.5 mph100%29.65 "Hg1 mi
12:19 pm37 °FFog.No wind100%29.64 "Hg1 mi
11:53 am37 °FFog.6 mph96%29.67 "Hg1 mi
11:21 am36 °FFog.7 mph100%29.66 "Hg1 mi
10:53 am36 °FFog.5 mph100%29.68 "Hg1 mi
10:22 am36 °FFog.6 mph100%29.65 "Hg2 mi
9:53 am35 °FFog.7 mph100%29.66 "Hg1 mi
9:18 am35 °FFog.10 mph96%29.64 "Hg2 mi
8:34 am34 °FLight rain. Fog.7 mph100%29.66 "Hg2 mi
Weather by CustomWeather, © 2017

See weather overviewHow to use our weather pages